Overview Statistics Trail Chart Weather Telemetry Raw packets
 

This is the latest recevied weather packets stored in our database for station/object WA5TET. If no packets are shown the sender has not sent any weather packets the latest 10 day(s).

<< 1 2 3 4 5 >>
Time Temp. Humidity Pressure Rain* Wind** Luminosity Snow
1788617436 31.67° C 59% 1013.5 hPa 0 mm - 335 W/m² -
1788617136 31.11° C 60% 1013.6 hPa 0 mm - 74 W/m² -
1788616835 31.11° C 59% 1013.5 hPa 0 mm - 170 W/m² -
1788616530 31.11° C 60% 1013.4 hPa 0 mm - 272 W/m² -
1788616225 30.56° C 60% 1013.6 hPa 0 mm - 70 W/m² -
1788615920 30.56° C 62% 1013.4 hPa 0 mm - 68 W/m² -
1788615619 30° C 64% 1013.6 hPa 0 mm - 66 W/m² -
1788615314 29.44° C 64% 1013.4 hPa 0 mm - 64 W/m² -
1788615014 29.44° C 65% 1013.2 hPa 0 mm - 62 W/m² -
1788614709 28.89° C 66% 1013 hPa 0 mm - 151 W/m² -
1788614409 28.33° C 68% 1013.3 hPa 0 mm - 122 W/m² -
1788614104 28.33° C 69% 1013.3 hPa 0 mm - 67 W/m² -
1788613799 27.78° C 70% 1013.1 hPa 0 mm - 54 W/m² -
1788613499 27.78° C 70% 1013.2 hPa 0 mm - 51 W/m² -
1788613198 27.78° C 71% 1013.1 hPa 0 mm - 48 W/m² -
1788612893 27.78° C 70% 1013 hPa 0 mm - 46 W/m² -
1788612589 27.78° C 70% 1012.9 hPa 0 mm - 43 W/m² -
1788612285 27.78° C 71% 1012.8 hPa 0 mm - 39 W/m² -
1788611980 27.78° C 71% 1012.8 hPa 0 mm - 35 W/m² -
1788611677 27.78° C 71% 1012.7 hPa 0 mm - 31 W/m² -
1788611377 27.78° C 71% 1012.7 hPa 0 mm - 28 W/m² -
1788611077 27.78° C 71% 1012.5 hPa 0 mm - 25 W/m² -
1788610772 27.22° C 72% 1012.6 hPa 0 mm - 20 W/m² -
1788610468 27.22° C 72% 1012.6 hPa 0 mm - 14 W/m² -
1788610167 27.22° C 72% 1012.6 hPa 0 mm - 8 W/m² -

* Rain latest hour (hover to see other rain measurements)
** Current wind speed in m/s (hover to see current wind gust speed)